Погода в Вальедупаре

Колумбия     10°27′49″N   73°15′07″W
темп.,
°C
ветер,
м/с
пор.,
м/с
влажн.,
%
обл.,
%
осадки,
мм/ч
давл.,
гПа
погр.,
м
8 мая, сб
сб801:00+22ссв2489100 0.1 1012116
04:00+21ссв2490100 0.0 101295
07:00+23ссв358299 0.1 1013246
10:00+29св4461100 0.0 1013917
13:00+32св344799 0.1 10091700
16:00+31св5655100 0.3 10081185
19:00+25ссв377472 0.9 1011276
22:00+24ссв3682100 0.1 1012183
9 мая, вс
вс901:00+23ссв368472 0.1 1011198
04:00+22с358558 0.1 1011161
07:00+24ссв368164 0.3 1012303
10:00+29св456087 0.1 1012807
13:00+32всв444895 0.2 10081473
16:00+31св555390 0.4 10071374
19:00+26ссв3678100 1.3 1009208
22:00+24ссв358479 0.6 1011135
10 мая, пн
пн1001:00+23ссв248497 0.6 1009131
04:00+23ссв2484100 0.0 1009116
07:00+25ссв237823 0.0 1011241
10:00+30св22566 0.0 10101064
13:00+34вюв114384 0.1 10071815
16:00+27св4677100 2.2 1007270
19:00+23ссв5796100 14.6 1010355
22:00+23ссв3496100 8.9 1013234
11 мая, вт
вт1101:00+22ссв4794100 9.8 1010264
04:00+22ссз1190100 0.4 101033
07:00+23с2391100 1.7 1012162
10:00+25ссв3683100 0.2 1012373
13:00+29ссв4561100 0.3 1009828
16:00+30ссв4661100 0.2 1007740
19:00+25ссв2477100 0.3 100973
22:00+24ссв358093 0.1 1011150
12 мая, ср
ср1201:00+23ссв3684100 0.1 1010173
04:00+23ссв2484100 0.0 1010105
07:00+24ссв2480100 0.0 1011246
10:00+29св2261100 0.0 1011923
13:00+33всв224835 0.3 10081635
16:00+33св235186 0.8 10061531
19:00+26с2478100 3.3 1009108
22:00+25ссв368582 0.0 1011204